This is the latest recevied weather packets stored in our database for station/object VE3TEJ. If no packets are shown the sender has not sent any weather packets the latest 10 day(s).
| Time | Temp. | Humidity | Pressure | Rain* | Wind** | Luminosity | Snow |
|---|---|---|---|---|---|---|---|
| 1778077358 | 8.89° C | 82% | 1008.3 hPa | 0 mm | - | - | - |
| 1778077058 | 8.33° C | 84% | 1008.3 hPa | 0 mm | - | - | - |
| 1778076757 | 7.78° C | 84% | 1008.2 hPa | 0 mm | - | - | - |
| 1778076459 | 7.78° C | 85% | 1008.2 hPa | 0 mm | - | - | - |
| 1778076158 | 7.78° C | 85% | 1007.9 hPa | 0 mm | - | - | - |
| 1778075858 | 7.78° C | 86% | 1007.8 hPa | 0 mm | - | - | - |
| 1778075557 | 7.22° C | 86% | 1007.6 hPa | 0 mm | - | - | - |
| 1778075259 | 7.22° C | 88% | 1008.1 hPa | 0 mm | - | - | - |
| 1778074959 | 6.67° C | 88% | 1008 hPa | 0 mm | - | - | - |
| 1778074658 | 6.67° C | 88% | 1007.9 hPa | 0 mm | - | - | - |
| 1778074358 | 6.11° C | 87% | 1007.9 hPa | 0 mm | - | - | - |
| 1778074057 | 6.67° C | 88% | 1008 hPa | 0 mm | - | - | - |
| 1778073759 | 6.67° C | 88% | 1008 hPa | 0 mm | - | - | - |
| 1778073458 | 6.11° C | 89% | 1008 hPa | 0 mm | - | - | - |
| 1778073158 | 6.11° C | 89% | 1007.9 hPa | 0 mm | - | - | - |
| 1778072858 | 6.11° C | 90% | 1007.8 hPa | 0 mm | - | - | - |
| 1778072557 | 5.56° C | 90% | 1007.5 hPa | 0 mm | - | - | - |
| 1778072259 | 5.56° C | 91% | 1007.6 hPa | 0 mm | - | - | - |
| 1778071959 | 5.56° C | 91% | 1007.6 hPa | 0 mm | - | - | - |
| 1778071658 | 5.56° C | 91% | 1007.6 hPa | 0 mm | - | - | - |
| 1778071358 | 5.56° C | 91% | 1007.7 hPa | 0 mm | - | - | - |
| 1778071057 | 5.56° C | 92% | 1007.4 hPa | 0 mm | - | - | - |
| 1778070757 | 5.56° C | 92% | 1007.5 hPa | 0 mm | - | - | - |
| 1778070459 | 5.56° C | 92% | 1007.4 hPa | 0 mm | - | - | - |
| 1778070158 | 5.56° C | 92% | 1007.5 hPa | 0 mm | - | - | - |
* Rain latest hour (hover to see other rain measurements)
** Current wind speed in m/s (hover to see current wind gust speed)